Weather in Malyutina

Russia / Kursk Oblast     51°40′31″N   35°46′20″E
temp.,
°C
wind,
m/s
gust,
m/s
humid.,
%
clouds,
%
prec.,
mm/h
press.,
hPa
HPBL,
m
17 may, mon
mon1700:00+15ene4108098 0.0 1010170
03:00+14ene51290100 0.9 1009228
06:00+15e512915 0.0 1006241
09:00+20ese615725 0.0 1006567
12:00+23ese8166113 0.0 10051273
15:00+24se8136431 0.0 10051421
18:00+22se7127328 0.0 1004779
21:00+19se7157530 0.0 1005495
18 may, tue
tue1800:00+17sse41190100 0.1 1005242
03:00+15se399638 0.4 1006185
06:00+15se379648 0.1 1005189
09:00+17sse61094100 0.4 1007574
12:00+20sse567097 0.1 10061110
15:00+18sse61081100 3.4 1005321
18:00+18sse5983100 1.6 1005736
21:00+15se3893100 2.1 1005190
19 may, wed
wed1900:00+14se3995100 0.2 1005212
03:00+12se39965 0.2 1006212
06:00+12se37965 0.0 1006198
09:00+17se468233 0.0 1007695
12:00+19se6768100 0.5 10061470
15:00+18se577894 1.8 1006805
18:00+17ssw458791 1.7 1006528
21:00+12w349599 2.0 1007150
20 may, thu
thu2000:00+12nne0095100 0.2 100616
03:00+12ssw1195100 0.3 100530
06:00+11sse249670 0.0 1005174
09:00+14s3587100 0.0 1005413
12:00+17ssw787867 1.6 10061119
15:00+15ssw598477 2.9 10071046
18:00+16ssw597784 0.3 10081041
21:00+13s5138598 0.4 1009452
21 may, fri
fri2100:00+13ssw71486100 0.1 1009893
03:00+12s81494100 0.9 1010716
06:00+12ssw61296100 2.0 1010738
09:00+12wsw698219 2.5 1012656
12:00+15wsw81070100 0.0 10131476
15:00+15w696942 0.1 10141393
18:00+15wnw356979 0.0 10151169
21:00+11wsw118195 0.0 101610